TimePDT,TemperatureF,Dew PointF,Humidity,Sea Level PressureIn,VisibilityMPH,Wind Direction,Wind SpeedMPH,Gust SpeedMPH,PrecipitationIn,Events,Conditions,WindDirDegrees,DateUTC
12:53 AM,42.1,25.0,51,30.20,10.0,Calm,Calm,-,N/A,,Clear,0,2013-03-24 07:53:00
1:53 AM,37.9,26.1,62,30.20,10.0,Calm,Calm,-,N/A,,Clear,0,2013-03-24 08:53:00
2:53 AM,37.0,25.0,62,30.21,10.0,Calm,Calm,-,N/A,,Clear,0,2013-03-24 09:53:00
3:53 AM,35.1,25.0,67,30.21,10.0,SSE,3.5,-,N/A,,Clear,160,2013-03-24 10:53:00
4:53 AM,33.1,25.0,72,30.21,10.0,ESE,3.5,-,N/A,,Clear,120,2013-03-24 11:53:00
5:53 AM,34.0,26.1,73,30.19,10.0,Calm,Calm,-,N/A,,Clear,0,2013-03-24 12:53:00
6:53 AM,32.0,25.0,75,30.20,10.0,Calm,Calm,-,N/A,,Clear,0,2013-03-24 13:53:00
7:53 AM,33.1,26.1,75,30.20,10.0,West,3.5,-,N/A,,Clear,260,2013-03-24 14:53:00
8:53 AM,36.0,27.0,70,30.19,10.0,Calm,Calm,-,N/A,,Clear,0,2013-03-24 15:53:00
9:53 AM,39.0,28.9,67,30.19,10.0,Calm,Calm,-,N/A,,Clear,0,2013-03-24 16:53:00
10:53 AM,44.1,30.0,58,30.18,10.0,Calm,Calm,-,N/A,,Clear,0,2013-03-24 17:53:00
11:53 AM,48.0,28.0,46,30.16,10.0,Calm,Calm,-,N/A,,Clear,0,2013-03-24 18:53:00
12:53 PM,52.0,27.0,38,30.13,10.0,Calm,Calm,-,N/A,,Clear,0,2013-03-24 19:53:00
1:53 PM,57.0,28.0,33,30.10,10.0,Calm,Calm,-,N/A,,Clear,0,2013-03-24 20:53:00
2:53 PM,60.1,32.0,35,30.07,10.0,Calm,Calm,-,N/A,,Clear,0,2013-03-24 21:53:00
3:53 PM,61.0,30.0,31,30.04,10.0,Variable,5.8,-,N/A,,Clear,0,2013-03-24 22:53:00
4:53 PM,62.1,32.0,32,30.02,10.0,NNE,4.6,-,N/A,,Mostly Cloudy,20,2013-03-24 23:53:00
5:53 PM,63.0,32.0,31,30.01,10.0,WNW,3.5,-,N/A,,Mostly Cloudy,290,2013-03-25 00:53:00
6:53 PM,62.1,33.1,34,30.01,10.0,WNW,3.5,-,N/A,,Scattered Clouds,290,2013-03-25 01:53:00
7:53 PM,60.1,34.0,38,30.00,10.0,Calm,Calm,-,N/A,,Clear,0,2013-03-25 02:53:00
8:53 PM,55.0,36.0,49,30.02,10.0,NE,3.5,-,N/A,,Scattered Clouds,40,2013-03-25 03:53:00
9:53 PM,52.0,36.0,54,30.03,10.0,Calm,Calm,-,N/A,,Clear,0,2013-03-25 04:53:00
10:53 PM,50.0,36.0,59,30.02,10.0,SSE,4.6,-,N/A,,Clear,150,2013-03-25 05:53:00
11:53 PM,50.0,35.1,57,30.01,10.0,Calm,Calm,-,N/A,,Clear,0,2013-03-25 06:53:00